Location: Kellogg
(38.0159°N, 90.0546°W)
Time: 06:31:08
(UTC+00:00)

Hubble Space Telescope - Pass Details

Date: 15 August 2024
Orbit: 505 x 509 km, 28.5° (Epoch: 19 September)

Event Time Altitude Azimuth Distance (km) Brightness Sun altitude
Exits shadow 10:22:57 12° 218° (SW) 1,561 2.6 -10.4°
Maximum altitude 10:25:20 20° 176° (S) 1,216 2.4 -10.0°
Drops below altitude 10° 10:28:15 10° 128° (SE) 1,715 3.7 -9.5°
Sets 10:30:55 0° 111° (ESE) 2,601 5.0 -9.0°
